• In Uzbekistan
  • List of Countries
  • For 7 days
  • Water Temperature
  • Satellite Maps
  • Weather Map
  • Weather Widgets
  • user-avatar
    Login

    Hourly Weather Vanadzor

    Today, 20 August, Sunday

    Time Temperature Precipitation Wind Pressure Humidity
    00:00 +15°C° 0 mm 2 mps 638 mmHg 71%
    01:00 +15°C° 0 mm 2 mps 638 mmHg 72%
    02:00 +14°C° 0 mm 2 mps 638 mmHg 73%
    03:00 +14°C° 0 mm 2 mps 638 mmHg 75%
    04:00 +14°C° 0 mm 2 mps 638 mmHg 74%
    05:00 +14°C° 0 mm 2 mps 638 mmHg 74%
    06:00 +14°C° 0 mm 2 mps 638 mmHg 74%
    07:00 +16°C° 0 mm 2 mps 638 mmHg 65%
    08:00 +19°C° 0 mm 2 mps 639 mmHg 57%
    09:00 +21°C° 0 mm 2 mps 639 mmHg 49%
    10:00 +24°C° 0 mm 2 mps 639 mmHg 45%
    11:00 +25°C° 0 mm 3 mps 640 mmHg 42%
    12:00 +27°C° 0 mm 3 mps 640 mmHg 38%
    13:00 +27°C° 0 mm 3 mps 639 mmHg 37%
    14:00 +27°C° 0 mm 3 mps 639 mmHg 36%
    15:00 +28°C° 0 mm 3 mps 639 mmHg 35%
    16:00 +27°C° 0 mm 3 mps 638 mmHg 39%
    17:00 +25°C° 0 mm 3 mps 638 mmHg 44%
    18:00 +24°C° 0 mm 2 mps 637 mmHg 48%
    19:00 +21°C° 0 mm 2 mps 637 mmHg 52%
    20:00 +19°C° 0 mm 2 mps 637 mmHg 55%
    21:00 +17°C° 0 mm 2 mps 637 mmHg 59%
    22:00 +16°C° 0 mm 2 mps 637 mmHg 59%
    23:00 +16°C° 0 mm 2 mps 637 mmHg 59%

    Tomorrow, 21 August, Monday

    Time Temperature Precipitation Wind Pressure Humidity
    00:00 +15°C° 0 mm 2 mps 637 mmHg 59%
    01:00 +15°C° 0 mm 2 mps 637 mmHg 59%
    02:00 +14°C° 0 mm 2 mps 636 mmHg 60%
    03:00 +14°C° 0 mm 2 mps 636 mmHg 60%
    04:00 +14°C° 0 mm 2 mps 636 mmHg 61%
    05:00 +14°C° 0 mm 2 mps 636 mmHg 62%
    06:00 +14°C° 0 mm 2 mps 636 mmHg 63%
    07:00 +17°C° 0 mm 2 mps 637 mmHg 56%
    08:00 +20°C° 0 mm 2 mps 638 mmHg 50%
    09:00 +24°C° 0 mm 2 mps 638 mmHg 43%
    10:00 +25°C° 0 mm 2 mps 638 mmHg 40%
    11:00 +27°C° 0 mm 2 mps 638 mmHg 37%
    12:00 +28°C° 0 mm 3 mps 638 mmHg 33%
    13:00 +29°C° 0 mm 3 mps 638 mmHg 32%
    14:00 +29°C° 0 mm 3 mps 638 mmHg 31%
    15:00 +29°C° 0 mm 3 mps 638 mmHg 30%
    16:00 +28°C° 0 mm 3 mps 637 mmHg 35%
    17:00 +27°C° 0 mm 2 mps 637 mmHg 40%
    18:00 +25°C° 0 mm 2 mps 636 mmHg 44%
    19:00 +23°C° 0 mm 2 mps 636 mmHg 49%
    20:00 +20°C° 0 mm 2 mps 636 mmHg 55%
    21:00 +18°C° 0 mm 2 mps 635 mmHg 60%
    22:00 +17°C° 0 mm 2 mps 635 mmHg 61%
    23:00 +17°C° 0 mm 2 mps 635 mmHg 63%

    Day after tomorrow, 22 August, Tuesday

    Time Temperature Precipitation Wind Pressure Humidity
    00:00 +16°C° 0 mm 2 mps 635 mmHg 64%
    01:00 +16°C° 0 mm 2 mps 635 mmHg 64%
    02:00 +16°C° 0 mm 2 mps 635 mmHg 65%
    03:00 +15°C° 0 mm 2 mps 635 mmHg 65%
    04:00 +15°C° 0 mm 1 mps 635 mmHg 65%
    05:00 +16°C° 0 mm 1 mps 635 mmHg 64%
    06:00 +16°C° 0 mm 1 mps 635 mmHg 63%
    07:00 +20°C° 0 mm 1 mps 636 mmHg 54%
    08:00 +23°C° 0 mm 2 mps 637 mmHg 45%
    09:00 +25°C° 0 mm 2 mps 638 mmHg 36%
    10:00 +27°C° 0 mm 2 mps 638 mmHg 34%
    11:00 +28°C° 0 mm 2 mps 638 mmHg 31%
    12:00 +30°C° 0 mm 3 mps 638 mmHg 28%
    13:00 +30°C° 0 mm 3 mps 637 mmHg 28%
    14:00 +30°C° 0 mm 3 mps 637 mmHg 28%
    15:00 +31°C° 0 mm 3 mps 637 mmHg 27%
    16:00 +29°C° 0 mm 3 mps 636 mmHg 32%
    17:00 +27°C° 0 mm 2 mps 636 mmHg 37%
    18:00 +26°C° 0 mm 2 mps 635 mmHg 43%
    19:00 +24°C° 0 mm 2 mps 635 mmHg 47%
    20:00 +20°C° 0 mm 2 mps 635 mmHg 52%
    21:00 +18°C° 0 mm 2 mps 635 mmHg 56%
    22:00 +18°C° 0 mm 2 mps 635 mmHg 56%
    23:00 +17°C° 0 mm 2 mps 635 mmHg 56%

    23 August, Wednesday

    Time Temperature Precipitation Wind Pressure Humidity
    00:00 +17°C° 0 mm 2 mps 635 mmHg 56%
    01:00 +16°C° 0 mm 2 mps 635 mmHg 57%
    02:00 +16°C° 0 mm 2 mps 635 mmHg 58%
    03:00 +15°C° 0 mm 2 mps 635 mmHg 59%
    04:00 +15°C° 0 mm 2 mps 635 mmHg 60%
    05:00 +15°C° 0 mm 2 mps 635 mmHg 60%
    06:00 +15°C° 0 mm 2 mps 636 mmHg 61%
    07:00 +18°C° 0 mm 2 mps 636 mmHg 54%
    08:00 +21°C° 0 mm 2 mps 637 mmHg 48%
    09:00 +24°C° 0 mm 2 mps 638 mmHg 41%
    10:00 +26°C° 0 mm 2 mps 638 mmHg 38%
    11:00 +27°C° 0 mm 3 mps 638 mmHg 35%
    12:00 +29°C° 0 mm 3 mps 638 mmHg 32%
    13:00 +29°C° 0 mm 3 mps 638 mmHg 31%
    14:00 +29°C° 0 mm 3 mps 638 mmHg 31%
    15:00 +30°C° 0 mm 3 mps 638 mmHg 30%
    16:00 +28°C° 0 mm 3 mps 638 mmHg 35%
    17:00 +26°C° 0 mm 3 mps 638 mmHg 39%
    18:00 +25°C° 0 mm 3 mps 638 mmHg 44%
    19:00 +22°C° 0 mm 3 mps 638 mmHg 45%
    20:00 +20°C° 0 mm 3 mps 638 mmHg 46%
    21:00 +18°C° 0 mm 3 mps 638 mmHg 47%
    22:00 +17°C° 0 mm 3 mps 638 mmHg 48%
    23:00 +17°C° 0 mm 2 mps 638 mmHg 49%

    24 August, Thursday

    Time Temperature Precipitation Wind Pressure Humidity
    00:00 +16°C° 0 mm 2 mps 638 mmHg 49%
    01:00 +16°C° 0 mm 2 mps 638 mmHg 51%
    02:00 +15°C° 0 mm 2 mps 638 mmHg 54%
    03:00 +15°C° 0 mm 2 mps 638 mmHg 56%
    04:00 +15°C° 0 mm 2 mps 638 mmHg 58%
    05:00 +15°C° 0 mm 2 mps 638 mmHg 59%
    06:00 +15°C° 0 mm 2 mps 638 mmHg 61%
    07:00 +17°C° 0 mm 2 mps 639 mmHg 55%
    08:00 +20°C° 0 mm 2 mps 640 mmHg 49%
    09:00 +24°C° 0 mm 2 mps 640 mmHg 44%
    10:00 +25°C° 0 mm 2 mps 640 mmHg 41%
    11:00 +26°C° 0 mm 3 mps 640 mmHg 37%
    12:00 +28°C° 0 mm 3 mps 641 mmHg 34%
    13:00 +28°C° 0 mm 3 mps 640 mmHg 34%
    14:00 +28°C° 0 mm 3 mps 640 mmHg 33%
    15:00 +29°C° 0 mm 4 mps 640 mmHg 33%
    16:00 +27°C° 0 mm 3 mps 640 mmHg 36%
    17:00 +26°C° 0 mm 3 mps 640 mmHg 40%
    18:00 +24°C° 0 mm 3 mps 639 mmHg 43%
    19:00 +21°C° 0 mm 3 mps 639 mmHg 44%
    20:00 +19°C° 0 mm 3 mps 639 mmHg 45%
    21:00 +17°C° 0 mm 2 mps 639 mmHg 46%
    22:00 +17°C° 0 mm 2 mps 639 mmHg 46%
    23:00 +16°C° 0 mm 2 mps 639 mmHg 45%

    25 August, Friday

    Time Temperature Precipitation Wind Pressure Humidity
    00:00 +16°C° 0 mm 2 mps 639 mmHg 45%
    01:00 +15°C° 0 mm 2 mps 639 mmHg 47%
    02:00 +14°C° 0 mm 2 mps 639 mmHg 50%
    03:00 +14°C° 0 mm 2 mps 639 mmHg 52%
    04:00 +14°C° 0 mm 2 mps 639 mmHg 54%
    05:00 +14°C° 0 mm 2 mps 639 mmHg 57%
    06:00 +14°C° 0 mm 2 mps 639 mmHg 59%
    07:00 +16°C° 0 mm 2 mps 640 mmHg 53%
    08:00 +19°C° 0 mm 2 mps 640 mmHg 47%
    09:00 +21°C° 0 mm 2 mps 641 mmHg 41%
    10:00 +24°C° 0 mm 2 mps 641 mmHg 38%
    11:00 +25°C° 0 mm 3 mps 641 mmHg 35%
    12:00 +26°C° 0 mm 3 mps 641 mmHg 33%
    13:00 +27°C° 0 mm 3 mps 641 mmHg 32%
    14:00 +27°C° 0 mm 3 mps 640 mmHg 31%
    15:00 +27°C° 0 mm 3 mps 640 mmHg 31%
    16:00 +26°C° 0 mm 3 mps 640 mmHg 33%
    17:00 +24°C° 0 mm 3 mps 639 mmHg 36%
    18:00 +22°C° 0 mm 3 mps 639 mmHg 38%
    19:00 +20°C° 0 mm 3 mps 639 mmHg 38%
    20:00 +18°C° 0 mm 3 mps 639 mmHg 38%
    21:00 +16°C° 0 mm 3 mps 639 mmHg 38%
    22:00 +16°C° 0 mm 2 mps 639 mmHg 38%
    23:00 +15°C° 0 mm 2 mps 638 mmHg 37%
    Show more